Location: Emporia
(38.4040°N, 96.1810°W)
Time: 22:59:55
(UTC-06:00)

ISS - Visible Passes

Search period start: 21 December 2014 00:00
Search period end: 31 December 2014 00:00
Orbit: 404 x 414 km, 51.6° (Epoch: 21 December)

Date Brightness Start Highest point End Pass type
(mag) Time Alt. Az. Time Alt. Az. Time Alt. Az.
21 Dec -1.1 18:29:34 10° NNW 18:30:46 13° N 18:30:46 13° N visible
22 Dec -1.0 17:39:22 10° N 17:40:19 11° NNE 17:41:16 10° NNE visible
22 Dec -0.6 19:14:33 10° NW 19:15:03 13° NNW 19:15:03 13° NNW visible
23 Dec -2.0 18:23:56 10° NNW 18:26:40 24° NNE 18:26:41 24° NNE visible
24 Dec -1.5 17:33:23 10° NNW 17:35:35 17° NNE 17:37:47 10° ENE visible
24 Dec -1.9 19:09:14 10° NW 19:11:16 35° NW 19:11:16 35° NW visible
25 Dec -3.2 18:18:22 10° NW 18:21:35 51° NE 18:23:18 23° ESE visible
25 Dec 0.3 19:55:56 10° W 19:56:07 11° W 19:56:07 11° W visible
26 Dec -1.3 19:04:11 10° WNW 19:07:02 28° SW 19:08:33 19° S visible
27 Dec -2.6 18:12:55 10° WNW 18:16:08 56° SW 18:19:20 10° SE visible
28 Dec 0.3 19:00:42 10° WSW 19:01:13 10° SW 19:01:45 10° SW visible
29 Dec -0.3 18:07:52 10° W 18:10:21 20° SW 18:12:49 10° S visible
